Conditions Actuelle
Plutôt dégagé



Pression
30.12 (inHG) - 1019.92 (mb)
Visibilité

10.0 (km) - 6.2 (miles)
   Température
24  °C
Température
12  °C
Point de Rosée
47  %
 Humidité
   Vitesse du Vent
16  km/h
9  kts
10  mph
4.5  m/s
   Direction du Vent
N
45°
E
90°
135°
S
180°
225°
O
270°
315°
 160°

Sud Sud
Est
   Données D'Aéroport
LFBU
Angoulême-Brie-Champniers Airport
Metar :LFBU 191500Z AUTO 16009KT 130V190 CAVOK 24/12 Q1020 NOSIG
19-10-2021 17:00
   Informations de métar brut
Le METAR brut est le format le plus courant au monde pour la transmission de données météorologiques d'observation. Il est hautement standardisé par l’Organisation de l’aviation civile internationale (OACI), ce qui lui permet d’être compris dans la plupart des pays du monde.
   API Information
Données fournies par
https://www.checkwx.com/weather/LFBU

Météo aéronautique fournissant des rapports météorologiques METAR, TAF, AIRMET, SIGMET et OUTLOOK
   © Info
CSS/SVG/PHP les scripts ont été développés pa weather34.com pour une utilisation dans le modèle weather34 © 2015-2021

Informations sur le guide fournies par Metar-Wikipedia